{"data":{"norad_id":55916,"intl_designator":"2023-037C","name":"STARLINK-5796","alt_names":[],"object_type":"PAYLOAD","status":"ACTIVE","operator":null,"country":"US","launch_date":"2023-03-17","launch_site_code":"AFWTR","launch_vehicle":null,"mission":null,"orbit_class":"UNKNOWN","rcs_meters":null,"size_class":null,"mass_kg":null,"dimensions":null,"purposes":["comms"],"wikipedia_slug":null,"has_3d_model":false,"image_url":null,"decayed_at":null,"tle_current":{"epoch":"2026-05-25T04:39:11.860992Z","epoch_age_seconds":65273,"freshness":"FRESH","line1":"1 55916U 23037C   26145.19388728 -.00001600  00000+0 -12632-3 0  9990","line2":"2 55916  69.9993 111.6908 0004086 262.8092  97.2603 14.98328881174940","mean_motion":14.98328881,"eccentricity":0.0004086,"inclination_deg":69.9993,"raan_deg":111.6908,"arg_perigee_deg":262.8092,"mean_anomaly_deg":97.2603,"bstar":-0.00012632,"rev_number":17494,"period_min":96.107070901479,"perigee_km":569.2195011326,"apogee_km":574.89920159093,"semimajor_km":6950.1963513618,"source":"CELESTRAK","updated_at":"2026-05-25T13:38:17.889236Z"}}}